Regional Weather Roundup
Issued by NWS

Home | Current Version | Previous Version | Text Only | Print | Product List | Glossary Off
Versions: 1 2 3 4 5 6 7 8 9 10 11 12 13 14 15 16 17 18 19 20 21 22 23 24 25 26 27 28 29 30 31 32 33 34 35 36 37 38 39 40 41 42 43 44 45 46 47 48 49 50

000
ASUS43 KDMX 280208
RWRIA

WEATHER ROUNDUP FOR IOWA
NATIONAL WEATHER SERVICE DES MOINES IA
900 PM CDT FRI MAY 27 2016

NOTE: "FAIR" INDICATES FEW OR NO CLOUDS BELOW 12,000 FEET WITH NO
SIGNIFICANT WEATHER AND/OR OBSTRUCTIONS TO VISIBILITY.

* - THESE STATIONS ARE NOT NWS STATIONS...THUS NOT UNDER NWS
QUALITY CONTROL.  THEY ALSO DO NOT REPORT WEATHER SUCH
AS PRECIPITATION OR FOG.

IAZ001>003-012>014-020>022-031>034-043>046-280300-
   NORTHWEST IOWA

CITY           SKY/WX    TMP DP  RH WIND       PRES   REMARKS
CARROLL *      CLEAR     70  64  83 SE7       29.71R
CHEROKEE *     CLOUDY    70  63  78 CALM      29.70S
DENISON *      CLOUDY    70  64  83 SE5G12    29.70R
LE MARS *      CLEAR     73  59  60 N5        29.70S
ORANGE CITY *  CLEAR     72  57  60 CALM      29.71S
SHELDON *      CLEAR     72  59  64 N6        29.71R
SIOUX CITY     CLOUDY    75  58  55 E7        29.68S
SPENCER        CLOUDY    69  58  67 N7        29.71S
STORM LAKE *   CLEAR     72  59  64 CALM      29.72R
$$

IAZ055>058-069>071-079>083-090>094-280300-
   SOUTHWEST IOWA

CITY           SKY/WX    TMP DP  RH WIND       PRES   REMARKS
ATLANTIC *     MOCLDY    70  64  83 SE6       29.72R
AUDUBON *      CLEAR     70  64  83 SE6       29.74R
CLARINDA *       N/A     70  66  88 MISG      29.73S
COUNCIL BLFS * PTCLDY    70  64  83 SE8       29.70S
CRESTON *      MOCLDY    68  64  88 E6        29.74F
HARLAN  *      CLEAR     70  64  83 SE7       29.75R
LAMONI         LGT RAIN  69  64  84 S3        29.75R
RED OAK *      MOCLDY    70  66  88 E3        29.71S
SHENANDOAH *   CLOUDY    70  68  94 SE13      29.72R
$$

IAZ047>049-059>061-072>074-084-280300-
   CENTRAL IOWA

CITY           SKY/WX    TMP DP  RH WIND       PRES   REMARKS
AMES           CLOUDY    70  63  78 E5        29.71S
ANKENY *       DRIZZLE   68  66  94 CALM      29.70S
BOONE *        CLEAR     70  64  83 E5        29.71S
CHARITON *     DRIZZLE   70  66  88 CALM      29.74R
DES MOINES     LGT RAIN  73  61  65 E5        29.70S
GRINNELL*      LGT RAIN  70  64  83 NE6       29.74R
KNOXVILLE *    CLOUDY    70  64  83 SE6       29.72R
MARSHALLTOWN   CLOUDY    70  65  84 NE3       29.71S
NEWTON *       CLOUDY    70  66  88 SE5       29.72R
PELLA *        RAIN      72  64  78 CALM      29.73R
PERRY *          N/A     70  66  88 SE5       29.72R
$$

IAZ004>006-015-016-023>025-035-036-280300-
   NORTH CENTRAL IOWA

CITY           SKY/WX    TMP DP  RH WIND       PRES   REMARKS
ALGONA *       CLEAR     70  61  73 SE6       29.72S
CLARION *      CLEAR     70  63  78 E6        29.72S
ESTHERVILLE    CLEAR     67  59  75 NE8       29.71S
FORT DODGE *   CLEAR     70  59  68 SE5       29.72R
MASON CITY     CLEAR     66  63  90 E6        29.74F
FOREST CITY *  CLEAR     66  61  82 NE3       29.72F
WEBSTER CITY * CLEAR     68  64  88 E6        29.70R
IOWA FALLS *     N/A     70  63  78 E3        29.74S
$$

IAZ007>011-017>019-026>030-037>042-050>054-066-280300-
   NORTHEAST IOWA

CITY           SKY/WX    TMP DP  RH WIND       PRES   REMARKS
CEDAR RAPIDS   CLOUDY    70  65  84 S5        29.72S THUNDER
CHARLES CITY * CLEAR     68  66  94 CALM      29.74F
CLINTON *      CLEAR     73  68  84 SE10      29.77R
DECORAH *      MOCLDY    68  68 100 CALM      29.73S
DUBUQUE        MOCLDY    71  66  84 CALM      29.76R
MONTICELLO *   LGT RAIN  72  68  88 CALM      29.75R
OELWEIN *      CLEAR     70  66  88 N5        29.73F
WATERLOO       MOCLDY    68  63  84 N5        29.71F
$$

IAZ064-065-067-068-078-280300-
   EAST CENTRAL IOWA

CITY           SKY/WX    TMP DP  RH WIND       PRES   REMARKS
DAVENPORT      MOCLDY    74  67  78 S17       29.76R
IOWA CITY      CLOUDY    72  60  66 W9        29.75R
MT. PLEASANT * CLOUDY    77  70  78 SE10      29.74S
MUSCATINE *    PTCLDY    75  68  78 SE10      29.74R
QUAD CITIES    MOCLDY    75  67  76 SE9       29.75R
$$

IAZ062-063-075>077-085>089-095>099-280300-
   SOUTHEAST IOWA

CITY           SKY/WX    TMP DP  RH WIND       PRES   REMARKS
BURLINGTON     LGT RAIN  73  69  87 S9        29.74S
FAIRFIELD *      N/A    N/A N/A N/A MISG        N/A
FORT MADISON * LGT RAIN  73  70  88 SE13      29.75F
KEOKUK *       CLOUDY    73  70  88 SE9       29.73S
OSKALOOSA *    HVY RAIN  70  64  83 E8        29.76R
OTTUMWA        RAIN      70  67  90 SE6       29.75R FOG
WASHINGTON *   CLOUDY    72  72 100 NW16G22   29.75R
$$

ABBREVIATIONS USED IN REMARKS
   TC - TEMPERATURES IN CELSIUS
  WCI - WIND CHILL INDEX
   HX - HEAT INDEX
  VSB - VISIBILITY
$$





USA.gov is the U.S. government's official web portal to all federal, state and local government web resources and services.